TimeAKDT,TemperatureF,Dew PointF,Humidity,Sea Level PressureIn,VisibilityMPH,Wind Direction,Wind SpeedMPH,Gust SpeedMPH,PrecipitationIn,Events,Conditions,WindDirDegrees,DateUTC
12:36 AM,46.4,41.0,81,29.74,9.0,South,19.6,27.6,N/A,,Overcast,190,2013-07-02 08:36:00
12:56 AM,46.9,41.0,80,29.75,10.0,SW,17.3,25.3,N/A,,Overcast,220,2013-07-02 08:56:00
1:56 AM,46.9,39.9,77,29.76,10.0,SW,18.4,31.1,N/A,,Overcast,220,2013-07-02 09:56:00
2:56 AM,48.0,39.9,74,29.77,10.0,WNW,10.4,-,N/A,,Overcast,300,2013-07-02 10:56:00
3:32 AM,46.4,39.2,76,29.75,10.0,South,12.7,19.6,N/A,,Overcast,180,2013-07-02 11:32:00
3:56 AM,46.9,39.9,77,29.76,10.0,South,21.9,26.5,N/A,,Overcast,180,2013-07-02 11:56:00
4:56 AM,46.9,39.0,74,29.77,10.0,WSW,21.9,28.8,N/A,,Overcast,250,2013-07-02 12:56:00
5:56 AM,48.0,37.9,68,29.78,10.0,WSW,16.1,26.5,N/A,,Partly Cloudy,250,2013-07-02 13:56:00
6:56 AM,46.0,37.9,73,29.79,10.0,South,17.3,24.2,N/A,,Scattered Clouds,180,2013-07-02 14:56:00
7:56 AM,46.0,39.0,76,29.78,10.0,South,13.8,27.6,N/A,,Scattered Clouds,190,2013-07-02 15:56:00
8:56 AM,46.9,39.9,77,29.80,10.0,SSW,26.5,33.4,N/A,,Partly Cloudy,210,2013-07-02 16:56:00
9:56 AM,50.0,41.0,71,29.81,10.0,SSW,23.0,-,N/A,,Partly Cloudy,200,2013-07-02 17:56:00
10:56 AM,50.0,41.0,71,29.83,10.0,SSW,26.5,32.2,N/A,,Partly Cloudy,200,2013-07-02 18:56:00
11:56 AM,55.0,42.1,62,29.85,10.0,SSW,13.8,18.4,N/A,,Partly Cloudy,210,2013-07-02 19:56:00
12:56 PM,55.9,42.1,60,29.88,10.0,SW,12.7,-,N/A,,Mostly Cloudy,220,2013-07-02 20:56:00
1:56 PM,57.9,42.1,56,29.89,10.0,SW,17.3,-,N/A,,Mostly Cloudy,220,2013-07-02 21:56:00
2:56 PM,59.0,42.1,53,29.89,10.0,SSW,17.3,-,N/A,,Mostly Cloudy,210,2013-07-02 22:56:00
3:56 PM,59.0,41.0,51,29.89,10.0,SSW,18.4,-,N/A,,Mostly Cloudy,200,2013-07-02 23:56:00
4:56 PM,57.9,41.0,53,29.88,10.0,SW,12.7,-,N/A,,Mostly Cloudy,230,2013-07-03 00:56:00
5:56 PM,57.9,42.1,56,29.87,10.0,WSW,6.9,-,N/A,,Mostly Cloudy,250,2013-07-03 01:56:00
6:56 PM,61.0,39.9,46,29.85,10.0,SW,13.8,-,N/A,,Mostly Cloudy,230,2013-07-03 02:56:00
7:56 PM,59.0,39.9,49,29.84,10.0,WNW,5.8,-,N/A,,Mostly Cloudy,300,2013-07-03 03:56:00
8:56 PM,55.9,41.0,57,29.85,10.0,West,10.4,-,N/A,,Overcast,270,2013-07-03 04:56:00
9:56 PM,55.9,39.9,55,29.83,10.0,West,9.2,-,N/A,,Overcast,270,2013-07-03 05:56:00
10:56 PM,55.0,41.0,59,29.82,10.0,Calm,Calm,-,N/A,,Overcast,0,2013-07-03 06:56:00
11:56 PM,52.0,43.0,71,29.82,10.0,South,8.1,-,N/A,Rain,Light Rain,190,2013-07-03 07:56:00